Regional Weather Roundup
Issued by NWS Upton, NY

Current Version | Previous Version | Text Only | Print | Product List | Glossary On
Versions: 1 2 3 4 5 6 7 8 9 10 11 12 13 14 15 16 17 18 19 20 21 22 23 24 25 26 27
000
ASUS41 KOKX 242204
RWROKX

REGIONAL WEATHER ROUNDUP
NATIONAL WEATHER SERVICE NEW YORK NY
600 PM EDT TUE MAY 24 2016

NOTE: "FAIR" INDICATES FEW OR NO CLOUDS BELOW 12,000 FEET WITH NO
SIGNIFICANT WEATHER AND/OR OBSTRUCTIONS TO VISIBILITY.

NYZ071-072-176-178-NJZ106-104-242300-
NEW YORK CITY METRO AREA


CITY           SKY/WX    TMP DP  RH WIND       PRES   REMARKS
CENTRAL PARK   CLOUDY    68  51  54 CALM      29.94F
LAGUARDIA APRT CLOUDY    70  55  59 N6        29.91S
KENNEDY INTL   CLOUDY    71  48  43 N8        29.92F
NEWARK/LIBERTY CLOUDY    72  52  49 NE5       29.91S
BRNX BOT. GARD   N/A     68  52  56 N2        29.93S
TETERBORO      CLOUDY    72  49  44 CALM      29.91S
$$

NYZ177-179-078>081-242300-
LONG ISLAND NEW YORK

CITY           SKY/WX    TMP DP  RH WIND       PRES   REMARKS
FARMINGDALE    CLOUDY    69  54  58 W8        29.92R
ISLIP          CLOUDY    64  59  83 N5        29.92S
SHIRLEY        MOSUNNY   66  57  72 MISG      29.93R
RIVERHEAD        N/A     63  59  88 CALM      29.92R
WESTHAMPTON    CLOUDY    59  58  96 NW5       29.94R
EAST HAMPTON   CLOUDY    59  57  94 W3        29.91S FOG
MONTAUK POINT    N/A     59  58  96 CALM      29.93S
$$

NYZ052-065-067-242300-
HUDSON VALLEY

CITY           SKY/WX    TMP DP  RH WIND       PRES   REMARKS
WHITE PLAINS   CLOUDY    66  56  70 CALM      29.91S
NEWBURGH       CLOUDY    68  55  64 NW6       29.93
MONTGOMERY     CLOUDY    68  54  60 CALM      29.92S
POUGHKEEPSIE   CLOUDY    70  55  59 CALM      29.91R
ALBANY         LGT RAIN  65  52  62 N7        29.94R
$$

NJZ001-105-106-008-010-013-015-019>022-104-242300-
NEW JERSEY

CITY           SKY/WX    TMP DP  RH WIND       PRES   REMARKS
NEWARK/LIBERTY CLOUDY    72  52  49 NE5       29.91S
TETERBORO      CLOUDY    72  49  44 CALM      29.91S
CALDWELL       CLOUDY    71  53  52 CALM      29.93S
MORRISTOWN     CLOUDY    70  48  46 NE7G15    29.92S
SOMERVILLE     CLOUDY    74  54  49 VRB5      29.89R
SUSSEX         CLOUDY    70  54  56 CALM      29.93R
ANDOVER          N/A     70  51  51 NE6       29.93R
TRENTON        CLOUDY    76  53  44 S6        29.89R
MILLVILLE      SUNNY     77  56  48 VRB6      29.93S
ATLANTIC CITY  MOSUNNY   77  53  43 SW10      29.92S
WRIGHTSTOWN    NOT AVBL
TOMS RIVER     MOSUNNY   79  52  38 W9        29.91S
BELMAR         CLOUDY    69  56  62 E7        29.95R
$$

PAZ047>061-062-071-242300-
EASTERN PENNSYLVANIA

CITY           SKY/WX    TMP DP  RH WIND       PRES   REMARKS
PHILADELPHIA   PTSUNNY   82  41  23 W13       29.91S
ALLENTOWN      CLOUDY    83  41  22 N14       29.90R
SCRANTON       SUNNY     81  38  21 N14       29.92S
$$

CTZ002-004>006-009-010-012-RIZ004-006-007-MAZ004-011-015-242300-
SOUTHERN NEW ENGLAND
 IN CT

CITY           SKY/WX    TMP DP  RH WIND       PRES   REMARKS
BRADLEY INTL   CLOUDY    65  56  72 N7        29.91R
HARTFORD       CLOUDY    67  57  70 N8        29.91R
DANBURY        CLOUDY    67  58  72 E5        29.92S
WTRBRY/OXFORD  NOT AVBL
BRIDGEPORT     CLOUDY    65  59  81 CALM      29.92R
MERIDEN        CLOUDY    67  56  67 N5        29.92R
NEW HAVEN      CLOUDY    60  56  86 W5        29.92R
CHESTER        CLOUDY    61  59  94 CALM      29.92S
GROTON         CLOUDY    58  58 100 SW5       29.91R
WILLIMANTIC    CLOUDY    66  55  67 NE7       29.91R

 IN RI

CITY           SKY/WX    TMP DP  RH WIND       PRES   REMARKS
PROVIDENCE     LGT RAIN  59  54  83 NE10      29.91S
BLOCK ISLAND   CLOUDY    56  55  97 W7        29.92R FOG
WESTERLY       LGT RAIN  59  55  87 SW3       29.92R FOG

 IN MA

CITY           SKY/WX    TMP DP  RH WIND       PRES   REMARKS
BOSTON         CLOUDY    55  51  86 NE12      29.93S
WORCESTER      CLOUDY    58  53  84 N8        29.92S
WESTFIELD      PTSUNNY   66  56  70 N6        29.91S
PROVINCETOWN   CLOUDY    58  53  84 S5        29.91S
NANTUCKET      CLOUDY    55  53  93 S15       29.88S FOG
$$

ANZ330-335-338-340-345-350-353-355-242300-
COASTAL MARINE OBSERVATIONS


STATION/POSITION TIME  SKY/WX   TEMP    WIND        PRES    VSBY  WAVE
                                AIR SEA DIR/SP/G                  HT/PER
                 (UTC)          (F)     (DEG/KT/KT) (MB)    (MI)  (FT/S)
NY HARB ENTRANCE 2050            62 59  220/  6/  8 1012.8          3/ 9
20S FIRE ISLAND  2050            57 55  220/  8/ 10 1012.8          3/ 9
GREAT SOUTH BAY  2100            64 65  340/  4/  8   N/A
23 SSW MONTAUK P 2150            56 55  270/  4/  6 1012.5          3/ 8
15 E BARNEGAT LI NOT AVBL
HUDSON CANYON    2050            56 54              1013.6          4/ 8
KINGS POINT      2100            67 55              1012.8
EXECUTION ROCKS  NOT AVBL
CENTRAL LI SOUND 2115            59     210/  2/  4   N/A           0
EASTERN LI SOUND 2100            55 52  240/  6/  8   N/A
ROBBINS REEF     2100            71      30/ 12/ 13 1012.4
$$


>>>>>>>>>>>>>>>>>>>>>>>>>>>> KEY <<<<<<<<<<<<<<<<<<<<<<<<<<<
>                                                          <
>     SKY/WX - SKY CONDITION/PRESENT WEATHER               <
>     TMP    - TEMPERATURE IN FAHRENHEIT                   <
>     DP     - DEWPOINT IN FAHRENHEIT                      <
>     RH     - RELATIVE HUMIDITY IN PERCENT                <
>     WIND   - DIRECTION AND SPEED IN MPH                  <
>     PRES   - MEAN SEA LEVEL PRESSURE IN INCHES OF HG     <
>     WCI    - WIND CHILL INDEX                            <
>     VSB    - VISIBILITY IN MILES                         <
>     HX     - HEAT INDEX                                  <
>     TC     - TEMPERATURE IN CELSIUS                      <
>     VRB    - VARIABLE WIND DIRECTION                     <
>                                                          <
>>>>>>>>>>>>>>>>>>>>>>>>>>>> KEY <<<<<<<<<<<<<<<<<<<<<<<<<<<






USA.gov is the U.S. government's official web portal to all federal, state and local government web resources and services.